Terminal Aerodrome Forecast
Issued by NWS

Current Version | Previous Version | Graphics & Text | Print | Product List | Glossary On
Versions: 1 2 3 4 5 6 7 8 9 10 11 12 13 14 15
000
FTUS41 KPBZ 211135
TAFHLG
TAF
KHLG 211135Z 2112/2212 26006KT P6SM VCSH BKN025
      TEMPO 2112/2114 5SM -RA BKN010
     FM211600 26010G16KT P6SM BKN040
     FM212300 27008KT P6SM FEW250
     FM220900 31005KT 6SM BR BKN010=

USA.gov is the U.S. government's official web portal to all federal, state and local government web resources and services.